| time (UTC) | temp C | wind direction | speed KPH | gust KPH | rain 1hr cm | rain 24hr cm | rain mn cm | humidity % | barometer mb |
| 20260504205003 | 23 | 55 | 6.4 | 16.1 | 0.00 | 0.08 | 0.00 | 27 | 1009.6 |
| 20260504204503 | 23 | 33 | 6.4 | 17.7 | 0.00 | 0.08 | 0.00 | 30 | 1009.7 |
| 20260504204003 | 21 | 13 | 6.4 | 19.3 | 0.00 | 0.08 | 0.00 | 28 | 1009.8 |
| 20260504203717 | 21 | 354 | 6.4 | 19.3 | 0.00 | 0.08 | 0.00 | 27 | 1009.8 |
| 20260504203218 | 21 | 345 | 8.0 | 24.1 | 0.00 | 0.08 | 0.00 | 27 | 1009.8 |
| 20260504202503 | 21 | 356 | 9.7 | 27.4 | 0.00 | 0.08 | 0.00 | 28 | 1009.9 |
| 20260504202003 | 21 | 5 | 9.7 | 27.4 | 0.00 | 0.08 | 0.00 | 27 | 1010.0 |
| 20260504201503 | 22 | 23 | 6.4 | 16.1 | 0.00 | 0.08 | 0.00 | 27 | 1010.0 |
| 20260504201003 | 22 | 38 | 6.4 | 14.5 | 0.00 | 0.08 | 0.00 | 28 | 1009.9 |
| 20260504200719 | 21 | 41 | 6.4 | 12.9 | 0.00 | 0.08 | 0.00 | 28 | 1010.0 |
| 20260504200003 | 22 | 2 | 4.8 | 16.1 | 0.00 | 0.08 | 0.00 | 27 | 1010.0 |
| 20260504195503 | 22 | 5 | 6.4 | 17.7 | 0.00 | 0.08 | 0.00 | 27 | 1010.0 |
| 20260504195003 | 23 | 23 | 6.4 | 17.7 | 0.00 | 0.08 | 0.00 | 27 | 1010.1 |
| 20260504194719 | 23 | 20 | 6.4 | 16.1 | 0.00 | 0.08 | 0.00 | 28 | 1010.1 |
| 20260504194003 | 21 | 1 | 6.4 | 16.1 | 0.00 | 0.08 | 0.00 | 35 | 1010.4 |
| 20260504193503 | 22 | 29 | 4.8 | 11.3 | 0.00 | 0.08 | 0.00 | 38 | 1010.3 |
| 20260504193003 | 22 | 112 | 4.8 | 11.3 | 0.00 | 0.08 | 0.00 | 37 | 1010.2 |
| 20260504192503 | 21 | 147 | 6.4 | 17.7 | 0.00 | 0.08 | 0.00 | 44 | 1010.3 |
| 20260504192003 | 21 | 161 | 6.4 | 17.7 | 0.00 | 0.08 | 0.00 | 45 | 1010.3 |
| 20260504191716 | 21 | 179 | 6.4 | 17.7 | 0.00 | 0.08 | 0.00 | 45 | 1010.3 |
| 20260504191003 | 20 | 178 | 3.2 | 9.7 | 0.00 | 0.08 | 0.00 | 50 | 1010.4 |
| 20260504190503 | 19 | 144 | 3.2 | 9.7 | 0.00 | 0.08 | 0.00 | 53 | 1010.4 |
| 20260504190003 | 18 | 163 | 6.4 | 12.9 | 0.00 | 0.08 | 0.00 | 55 | 1010.5 |
| 20260504185716 | 18 | 169 | 8.0 | 16.1 | 0.00 | 0.08 | 0.00 | 54 | 1010.5 |
| 20260504185003 | 19 | 182 | 6.4 | 16.1 | 0.00 | 0.08 | 0.00 | 52 | 1010.6 |
| 20260504184503 | 18 | 184 | 8.0 | 14.5 | 0.00 | 0.08 | 0.00 | 53 | 1010.7 |
| 20260504184003 | 18 | 189 | 8.0 | 14.5 | 0.00 | 0.08 | 0.00 | 55 | 1010.7 |
| 20260504183503 | 18 | 199 | 6.4 | 12.9 | 0.00 | 0.08 | 0.00 | 55 | 1010.8 |
| 20260504183003 | 17 | 198 | 4.8 | 12.9 | 0.00 | 0.08 | 0.00 | 58 | 1010.8 |
| 20260504182503 | 17 | 193 | 6.4 | 12.9 | 0.00 | 0.08 | 0.00 | 58 | 1010.9 |
| 20260504182219 | 17 | 178 | 6.4 | 12.9 | 0.00 | 0.08 | 0.00 | 61 | 1011.0 |
| 20260504181503 | 16 | 177 | 6.4 | 12.9 | 0.00 | 0.08 | 0.00 | 60 | 1010.9 |
| 20260504181003 | 17 | 182 | 6.4 | 12.9 | 0.00 | 0.08 | 0.00 | 62 | 1010.9 |
| 20260504180503 | 16 | 190 | 6.4 | 12.9 | 0.00 | 0.08 | 0.00 | 63 | 1010.9 |
| 20260504180003 | 16 | 197 | 4.8 | 12.9 | 0.00 | 0.08 | 0.00 | 63 | 1010.9 |
| 20260504175503 | 15 | 171 | 6.4 | 14.5 | 0.00 | 0.08 | 0.00 | 64 | 1011.0 |
| 20260504175003 | 15 | 165 | 4.8 | 14.5 | 0.00 | 0.08 | 0.00 | 68 | 1011.1 |
| 20260504174503 | 15 | 173 | 4.8 | 11.3 | 0.00 | 0.08 | 0.00 | 67 | 1011.1 |
| 20260504174003 | 15 | 187 | 4.8 | 11.3 | 0.00 | 0.08 | 0.00 | 68 | 1011.1 |
| 20260504173503 | 15 | 200 | 4.8 | 8.0 | 0.00 | 0.08 | 0.00 | 67 | 1011.1 |
| 20260504173003 | 14 | 197 | 4.8 | 9.7 | 0.00 | 0.08 | 0.00 | 69 | 1011.1 |
| 20260504172503 | 15 | 200 | 4.8 | 9.7 | 0.00 | 0.08 | 0.00 | 69 | 1011.2 |
| 20260504172219 | 14 | 205 | 4.8 | 9.7 | 0.00 | 0.08 | 0.00 | 71 | 1011.2 |
| 20260504171715 | 13 | 199 | 4.8 | 9.7 | 0.00 | 0.08 | 0.00 | 70 | 1011.2 |
| 20260504171003 | 13 | 199 | 4.8 | 8.0 | 0.00 | 0.08 | 0.00 | 73 | 1011.3 |
| 20260504170503 | 13 | 219 | 4.8 | 8.0 | 0.00 | 0.08 | 0.00 | 74 | 1011.3 |
| 20260504170218 | 13 | 226 | 4.8 | 8.0 | 0.00 | 0.08 | 0.00 | 73 | 1011.3 |
| 20260504151003 | 8 | 185 | 1.6 | 4.8 | 0.00 | 0.08 | 0.00 | 82 | 1011.5 |
| 20260504150503 | 8 | 172 | 1.6 | 4.8 | 0.00 | 0.08 | 0.00 | 83 | 1011.6 |
| 20260504141003 | 8 | 56 | 1.6 | 4.8 | 0.00 | 0.08 | 0.00 | 79 | 1011.2 |
| 20260504140503 | 8 | 47 | 1.6 | 4.8 | 0.00 | 0.08 | 0.00 | 79 | 1011.2 |
| 20260504140217 | 8 | 44 | 1.6 | 4.8 | 0.00 | 0.08 | 0.00 | 79 | 1011.2 |
| 20260504130503 | 8 | 9 | 1.6 | 4.8 | 0.00 | 0.08 | 0.00 | 75 | 1010.6 |
| 20260504110503 | 8 | 32 | 1.6 | 4.8 | 0.00 | 0.08 | 0.00 | 83 | 1010.8 |
| 20260504100503 | 8 | 165 | 1.6 | 4.8 | 0.00 | 0.08 | 0.00 | 81 | 1011.1 |
| 20260504081503 | 10 | 357 | 1.6 | 3.2 | 0.00 | 0.08 | 0.00 | 71 | 1011.1 |
| 20260504081003 | 11 | 22 | 1.6 | 3.2 | 0.00 | 0.08 | 0.00 | 71 | 1011.1 |
| 20260504080503 | 11 | 62 | 1.6 | 3.2 | 0.00 | 0.08 | 0.00 | 70 | 1011.2 |
| 20260504080219 | 11 | 61 | 1.6 | 3.2 | 0.00 | 0.08 | 0.00 | 69 | 1011.3 |
| 20260504050503 | 15 | 357 | 8.0 | 20.9 | 0.00 | 0.08 | 0.08 | 46 | 1010.3 |
| 20260504050003 | 15 | 349 | 9.7 | 22.5 | 0.00 | 0.08 | 0.08 | 45 | 1010.2 |
| 20260504045503 | 15 | 347 | 8.0 | 22.5 | 0.00 | 0.08 | 0.08 | 45 | 1010.3 |
| 20260504045003 | 15 | 355 | 8.0 | 19.3 | 0.00 | 0.08 | 0.08 | 45 | 1010.5 |
| 20260504044504 | 16 | 359 | 9.7 | 19.3 | 0.00 | 0.08 | 0.08 | 44 | 1010.6 |
| 20260504044003 | 16 | 357 | 8.0 | 17.7 | 0.00 | 0.08 | 0.08 | 44 | 1010.6 |
| 20260504043503 | 16 | 9 | 4.8 | 12.9 | 0.00 | 0.08 | 0.08 | 44 | 1010.8 |
| 20260504043003 | 16 | 18 | 6.4 | 11.3 | 0.00 | 0.08 | 0.08 | 44 | 1010.9 |
| 20260504042503 | 16 | 12 | 6.4 | 12.9 | 0.00 | 0.08 | 0.08 | 45 | 1010.9 |
| 20260504042003 | 16 | 11 | 6.4 | 12.9 | 0.00 | 0.08 | 0.08 | 46 | 1010.9 |
| 20260504041504 | 16 | 17 | 6.4 | 16.1 | 0.00 | 0.08 | 0.08 | 45 | 1010.8 |
| 20260504041216 | 16 | 17 | 6.4 | 16.1 | 0.00 | 0.08 | 0.08 | 45 | 1010.7 |
| 20260504040503 | 15 | 18 | 6.4 | 17.7 | 0.00 | 0.08 | 0.08 | 46 | 1010.5 |
| 20260504040003 | 15 | 15 | 4.8 | 11.3 | 0.00 | 0.08 | 0.08 | 48 | 1010.6 |
| 20260504035503 | 15 | 23 | 6.4 | 11.3 | 0.00 | 0.08 | 0.08 | 48 | 1010.5 |
| 20260504035003 | 15 | 19 | 8.0 | 19.3 | 0.00 | 0.08 | 0.08 | 48 | 1010.4 |
| 20260504034503 | 15 | 14 | 8.0 | 19.3 | 0.00 | 0.08 | 0.08 | 47 | 1010.3 |
| 20260504034003 | 15 | 9 | 9.7 | 19.3 | 0.00 | 0.08 | 0.08 | 49 | 1010.2 |
| 20260504033503 | 15 | 4 | 9.7 | 22.5 | 0.00 | 0.08 | 0.08 | 49 | 1010.1 |
| 20260504033219 | 15 | 2 | 11.3 | 22.5 | 0.00 | 0.08 | 0.08 | 49 | 1010.1 |
| 20260504032503 | 15 | 358 | 9.7 | 24.1 | 0.00 | 0.08 | 0.08 | 50 | 1010.0 |
| 20260504032003 | 16 | 360 | 8.0 | 16.1 | 0.00 | 0.08 | 0.08 | 48 | 1010.0 |
| 20260504031503 | 16 | 355 | 8.0 | 14.5 | 0.00 | 0.08 | 0.08 | 46 | 1010.0 |
| 20260504031003 | 16 | 360 | 8.0 | 19.3 | 0.00 | 0.08 | 0.08 | 47 | 1009.9 |
| 20260504030504 | 16 | 354 | 8.0 | 20.9 | 0.00 | 0.08 | 0.08 | 47 | 1009.9 |
| 20260504030003 | 16 | 351 | 9.7 | 24.1 | 0.00 | 0.08 | 0.08 | 47 | 1010.0 |
| 20260504025503 | 16 | 358 | 11.3 | 24.1 | 0.00 | 0.08 | 0.08 | 47 | 1010.1 |
| 20260504025219 | 16 | 1 | 9.7 | 20.9 | 0.00 | 0.08 | 0.08 | 47 | 1010.2 |
| 20260504024503 | 16 | 7 | 9.7 | 24.1 | 0.00 | 0.08 | 0.08 | 49 | 1010.2 |
| 20260504024003 | 16 | 360 | 9.7 | 22.5 | 0.00 | 0.08 | 0.08 | 50 | 1010.4 |
| 20260504023503 | 16 | 348 | 8.0 | 22.5 | 0.00 | 0.08 | 0.08 | 50 | 1010.4 |
| 20260504023003 | 16 | 345 | 8.0 | 19.3 | 0.00 | 0.08 | 0.08 | 49 | 1010.5 |
| 20260504022503 | 17 | 342 | 9.7 | 19.3 | 0.00 | 0.08 | 0.08 | 48 | 1010.5 |
| 20260504022003 | 17 | 342 | 8.0 | 19.3 | 0.00 | 0.08 | 0.08 | 48 | 1010.5 |
| 20260504021503 | 17 | 347 | 6.4 | 17.7 | 0.00 | 0.08 | 0.08 | 48 | 1010.6 |
| 20260504021003 | 17 | 343 | 4.8 | 17.7 | 0.00 | 0.08 | 0.08 | 48 | 1010.6 |
| 20260504020503 | 17 | 329 | 4.8 | 9.7 | 0.00 | 0.08 | 0.08 | 49 | 1010.7 |
| 20260504020004 | 17 | 306 | 3.2 | 8.0 | 0.00 | 0.08 | 0.08 | 50 | 1010.7 |
| 20260504015503 | 17 | 297 | 3.2 | 8.0 | 0.00 | 0.08 | 0.08 | 50 | 1010.8 |
| 20260504015003 | 17 | 264 | 3.2 | 8.0 | 0.00 | 0.08 | 0.08 | 52 | 1010.7 |
| 20260504014503 | 17 | 250 | 3.2 | 8.0 | 0.00 | 0.08 | 0.08 | 52 | 1010.5 |
| 20260504014003 | 17 | 253 | 3.2 | 8.0 | 0.00 | 0.08 | 0.08 | 54 | 1010.5 |
| 20260504013718 | 17 | 256 | 3.2 | 9.7 | 0.00 | 0.08 | 0.08 | 52 | 1010.5 |
| 20260504013003 | 17 | 261 | 4.8 | 12.9 | 0.00 | 0.08 | 0.08 | 52 | 1010.4 |
| 20260504012716 | 17 | 255 | 6.4 | 16.1 | 0.00 | 0.08 | 0.08 | 52 | 1010.4 |
| 20260504012217 | 17 | 250 | 8.0 | 16.1 | 0.00 | 0.08 | 0.08 | 53 | 1010.4 |
| 20260504011503 | 18 | 252 | 6.4 | 16.1 | 0.00 | 0.08 | 0.08 | 49 | 1010.5 |
| 20260504011003 | 19 | 264 | 4.8 | 16.1 | 0.00 | 0.08 | 0.08 | 46 | 1010.6 |
| 20260504010503 | 19 | 273 | 4.8 | 12.9 | 0.00 | 0.08 | 0.08 | 44 | 1010.6 |
| 20260504010003 | 18 | 255 | 4.8 | 12.9 | 0.00 | 0.08 | 0.08 | 46 | 1010.7 |
| 20260504005503 | 18 | 240 | 4.8 | 9.7 | 0.00 | 0.08 | 0.08 | 52 | 1010.7 |
| 20260504005004 | 18 | 241 | 4.8 | 9.7 | 0.00 | 0.08 | 0.08 | 56 | 1010.7 |
| 20260504004503 | 18 | 245 | 4.8 | 9.7 | 0.00 | 0.08 | 0.08 | 53 | 1010.7 |
| 20260504004003 | 17 | 237 | 4.8 | 9.7 | 0.00 | 0.08 | 0.08 | 58 | 1010.7 |
| 20260504003503 | 17 | 215 | 6.4 | 11.3 | 0.00 | 0.08 | 0.08 | 57 | 1010.7 |
| 20260504003003 | 17 | 219 | 4.8 | 11.3 | 0.00 | 0.08 | 0.08 | 57 | 1010.7 |
| 20260504002503 | 17 | 263 | 3.2 | 8.0 | 0.00 | 0.08 | 0.08 | 56 | 1010.7 |
| 20260504002003 | 17 | 336 | 1.6 | 3.2 | 0.00 | 0.08 | 0.08 | 49 | 1010.7 |
| 20260504001503 | 17 | 358 | 3.2 | 6.4 | 0.00 | 0.08 | 0.08 | 50 | 1010.7 |
| 20260504001003 | 17 | 2 | 3.2 | 6.4 | 0.00 | 0.08 | 0.08 | 48 | 1010.7 |
| 20260504000503 | 17 | 5 | 3.2 | 8.0 | 0.00 | 0.08 | 0.08 | 51 | 1010.7 |
| 20260504000003 | 17 | 6 | 4.8 | 9.7 | 0.00 | 0.08 | 0.08 | 51 | 1010.8 |
| 20260503235503 | 16 | 1 | 4.8 | 9.7 | 0.00 | 0.08 | 0.08 | 55 | 1010.8 |
| 20260503235004 | 16 | 352 | 4.8 | 8.0 | 0.00 | 0.08 | 0.08 | 52 | 1010.9 |
| 20260503234503 | 16 | 334 | 4.8 | 8.0 | 0.00 | 0.08 | 0.08 | 54 | 1010.9 |
| 20260503234216 | 16 | 323 | 4.8 | 8.0 | 0.00 | 0.08 | 0.08 | 49 | 1011.1 |
| 20260503233503 | 16 | 303 | 4.8 | 8.0 | 0.00 | 0.08 | 0.08 | 51 | 1011.1 |
| 20260503233003 | 15 | 312 | 3.2 | 6.4 | 0.00 | 0.08 | 0.08 | 54 | 1011.2 |
| 20260503232503 | 15 | 326 | 1.6 | 4.8 | 0.00 | 0.08 | 0.08 | 54 | 1011.3 |
| 20260503232003 | 15 | 305 | 1.6 | 3.2 | 0.00 | 0.08 | 0.08 | 58 | 1011.6 |
| 20260503231717 | 15 | 319 | 1.6 | 3.2 | 0.00 | 0.08 | 0.08 | 56 | 1011.6 |
| 20260503231003 | 15 | 137 | 1.6 | 3.2 | 0.00 | 0.08 | 0.08 | 62 | 1011.8 |
| 20260503230503 | 14 | 164 | 1.6 | 6.4 | 0.00 | 0.08 | 0.08 | 63 | 1012.0 |
| 20260503230003 | 14 | 170 | 3.2 | 11.3 | 0.00 | 0.08 | 0.08 | 57 | 1012.3 |
| 20260503225503 | 13 | 166 | 3.2 | 11.3 | 0.00 | 0.08 | 0.08 | 65 | 1012.5 |
| 20260503225003 | 13 | 167 | 8.0 | 22.5 | 0.00 | 0.08 | 0.08 | 66 | 1012.6 |
| 20260503224503 | 13 | 174 | 12.9 | 25.7 | 0.00 | 0.08 | 0.08 | 60 | 1012.6 |
| 20260503224003 | 15 | 164 | 11.3 | 25.7 | 0.00 | 0.08 | 0.08 | 54 | 1012.8 |
| 20260503223503 | 16 | 121 | 8.0 | 24.1 | 0.00 | 0.08 | 0.08 | 52 | 1012.8 |
| 20260503223003 | 17 | 90 | 8.0 | 24.1 | 0.00 | 0.08 | 0.08 | 50 | 1012.6 |
| 20260503222503 | 18 | 13 | 6.4 | 19.3 | 0.00 | 0.08 | 0.08 | 45 | 1012.4 |
| 20260503222003 | 18 | 351 | 6.4 | 17.7 | 0.00 | 0.08 | 0.08 | 42 | 1012.1 |
| 20260503221503 | 18 | 360 | 8.0 | 22.5 | 0.00 | 0.08 | 0.08 | 42 | 1011.9 |
| 20260503221003 | 18 | 354 | 12.9 | 25.7 | 0.00 | 0.08 | 0.08 | 43 | 1011.8 |
| 20260503220503 | 18 | 343 | 11.3 | 25.7 | 0.00 | 0.08 | 0.08 | 43 | 1011.8 |
| 20260503220003 | 18 | 325 | 6.4 | 17.7 | 0.05 | 0.08 | 0.08 | 41 | 1011.8 |
| 20260503215503 | 18 | 306 | 4.8 | 12.9 | 0.08 | 0.08 | 0.08 | 43 | 1011.8 |
| 20260503215003 | 18 | 299 | 4.8 | 11.3 | 0.08 | 0.08 | 0.08 | 43 | 1012.0 |
| 20260503214503 | 18 | 286 | 4.8 | 9.7 | 0.08 | 0.08 | 0.08 | 47 | 1012.0 |
| 20260503214003 | 17 | 279 | 4.8 | 8.0 | 0.08 | 0.08 | 0.08 | 46 | 1012.1 |
| 20260503213716 | 17 | 281 | 4.8 | 12.9 | 0.08 | 0.08 | 0.08 | 48 | 1012.1 |
| 20260503213005 | 16 | 291 | 4.8 | 12.9 | 0.08 | 0.08 | 0.08 | 54 | 1012.3 |
| 20260503212503 | 15 | 312 | 4.8 | 14.5 | 0.08 | 0.08 | 0.08 | 59 | 1012.4 |
| 20260503212003 | 14 | 272 | 6.4 | 14.5 | 0.08 | 0.08 | 0.08 | 56 | 1012.5 |
| 20260503211503 | 13 | 220 | 6.4 | 12.9 | 0.08 | 0.08 | 0.08 | 61 | 1012.5 |
| 20260503211003 | 13 | 166 | 4.8 | 19.3 | 0.08 | 0.08 | 0.08 | 63 | 1012.4 |
| 20260503210503 | 13 | 63 | 11.3 | 45.1 | 0.08 | 0.08 | 0.08 | 63 | 1012.4 |
| 20260503210003 | 14 | 56 | 19.3 | 45.1 | 0.03 | 0.03 | 0.03 | 60 | 1013.0 |
| 20260503205503 | 16 | 47 | 16.1 | 41.8 | 0.00 | 0.00 | 0.00 | 46 | 1011.8 |
| 20260503205217 | 17 | 38 | 12.9 | 33.8 | 0.00 | 0.00 | 0.00 | 42 | 1011.9 |